Regional Weather Roundup
Issued by NWS Mobile, AL

Home | Current Version | Previous Version | Text Only | Print | Product List | Glossary On
Versions: 1 2 3 4 5 6 7 8 9 10 11 12 13 14 15 16 17 18 19 20 21 22 23 24 25 26 27 28 29 30 31 32 33 34 35 36 37 38 39 40 41 42 43 44 45 46 47 48 49 50
000
ASUS44 KMOB 192312
RWRMOB
REGIONAL WEATHER ROUNDUP
NATIONAL WEATHER SERVICE MOBILE AL
500 PM CST MON FEB 19 2018

NOTE: "FAIR" INDICATES FEW OR NO CLOUDS BELOW 12,000 FEET WITH NO
      SIGNIFICANT WEATHER AND/OR OBSTRUCTIONS TO VISIBILITY.

  * THESE STATIONS ARE PART OF THE UNIVERSITY OF SOUTH ALABAMA
    MESONET AND ARE NOT UNDER NWS OR FAA QUALITY CONTROL.

ALZ061>064-200000-
COASTAL ALABAMA

CITY           SKY/WX    TMP DP  RH WIND       PRES   REMARKS
MOBILE REG APT MOCLDY    74  65  73 SE16G23   30.19R
BROOKLEY FIELD MOCLDY    72  67  84 S13       30.19R
USA CAMPUS*    NOT AVBL
DOG RIVER*     NOT AVBL


CITY           SKY/WX    TMP DP  RH WIND       PRES   REMARKS
GULF SHORES    CLOUDY    72  69  91 E12       30.19R

$$

ALZ051>060-200000-
INTERIOR SOUTHWEST AND SOUTH CENTRAL ALABAMA

CITY           SKY/WX    TMP DP  RH WIND       PRES   REMARKS
GREENVILLE     MOCLDY    78  56  46 S9        30.19R
EVERGREEN      MOCLDY    78  59  51 S14       30.20R
ATMORE*          N/A     75  64  69 S10       30.97R
ANDALUSIA/OPP  CLOUDY    80  58  46 VRB5      30.20R
ANDALUSIA*       N/A     75  59  57 S6        30.21R
FLORALA APT    NOT AVBL
FLORALA*         N/A     75  63  64 CALM      30.96R

$$

FLZ001>006-200000-
WESTERN FLORIDA PANHANDLE

CITY           SKY/WX    TMP DP  RH WIND       PRES   REMARKS
PENSACOLA      CLOUDY    72  68  87 SE10      30.20R
NAS PENSACOLA  CLOUDY    72  68  87 MISG      30.19R
MILTON         MOCLDY    75  63  66 SE15      30.20R
WHTNG S FIELD  NOT AVBL


CITY           SKY/WX    TMP DP  RH WIND       PRES   REMARKS
JAY*           NOT AVBL
DUKE FIELD     FAIR      73  62  66 S9        30.21R
CRESTVIEW      FAIR      75  59  57 VRB6      30.23R
VALPARAISO     MOCLDY    70  66  88 SE7       30.21R
DESTIN         CLOUDY    72  66  81 SE9       30.22R

$$

MSZ076-079-200000-
INTERIOR SOUTHEAST MISSISSIPPI

CITY           SKY/WX    TMP DP  RH WIND       PRES   REMARKS
LEAKESVILLE*     N/A     75  64  69 S3        30.17R
AGRICOLA*        N/A     73  64  73 CALM      30.17R

$$

MARINE OBSERVATIONS

STATION/POSITION TIME  TEMP    WIND        PRES    WAVE
                       AIR SEA DIR/SP/G            HT/PER
                 (UTC) (F)     (DEG/KT/KT) (MB)    (FT/S)
PETIT BOIS ISLND 2242   71     120/ 11/ 15 1022.2R
KATRINA CUT      2230          130/ 14     1021.3F
CEDAR POINT      2200   69     140/ 11     1021.7
E DAUPHIN ISLAND 2300   69     120/ 12/ 13 1021.7R
MIDDLE BAY LIGHT 2230   71     130/ 15     1021.3S
USCG MOBILE BAY  2242   69 63  170/  8/ 12 1022.1R
STATE DOCKS      2242   71 59              1022.0R
MEAHER PARK      2230   75     140/ 14     1021.3F
WEEKS BAY        2145   77                 1022.0R
FORT MORGAN      2242   70     140/ 16/ 18   N/A
12 S ORANGE BCH  NOT AVBL
PENSACOLA BAY    2242   73 70  130/  2/  5 1022.9R
64 S DAUPHIN ISL 2250   73 72  130/ 16/ 17 1021.3R   5/ 7
67 S FORT MORGAN 2230   72                 1021.3

$$

SELECTED LOCATIONS ACROSS THE REGION

CITY           SKY/WX    TMP DP  RH WIND       PRES   REMARKS
NEW ORLEANS    FAIR      79  65  62 S16G22    30.11R
GULFPORT       CLOUDY    73  68  84 SE15      30.15R
PASCAGOULA AP  MOCLDY    74  65  73 SE13      30.17R
PASCAGOULA*      N/A     70  64  83 S14         N/A
HATTIESBURG    FAIR      77  63  61 S16G23    30.14R
LAUREL         FAIR      78  62  57 S16G24    30.14R
MERIDIAN       FAIR      78  61  55 S13       30.12R
JACKSON        FAIR      78  56  46 S14       30.06S
MONTGOMERY     MOCLDY    79  59  50 S7        30.19R
TROY           CLOUDY    78  60  53 S7        30.21R
ASHFORD*         N/A     75  59  57 S6        30.21R
DOTHAN         MOCLDY    78  59  51 SE13      30.25R
PANAMA CITY    FAIR      74  63  68 SE14      30.22R

$$




USA.gov is the U.S. government's official web portal to all federal, state and local government web resources and services.